Weather Roundup
Issued by NWS

Home | Current Version | Previous Version | Graphics & Text | Print | Product List | Glossary Off
Versions: 1 2 3 4 5 6 7 8 9 10 11 12 13 14 15 16 17 18 19 20 21 22 23 24 25 26 27 28 29 30 31 32 33 34 35 36 37 38 39 40 41 42 43 44 45 46 47 48 49 50

000
NZUS93 KARX 180810
HRRWXR

CURRENT HOURLY OBSERVATIONS ACROSS
MUCH OF THE UPPER MISSISSIPPI VALLEY
NATIONAL WEATHER SERVICE LA CROSSE WI
300 AM CDT SAT APR 18 2015


...SOUTHEAST MINNESOTA...


CITY           SKY/WX    TMP DP  RH WIND       PRES   REMARKS
ROCHESTER      CLEAR     56  36  47 CALM      30.07R
ROCHESTER/MAYO FAIR      55  39  54 CALM      30.05S
WINONA         CLEAR     48  45  87 CALM      30.04F
AUSTIN         PTCLDY    50  39  66 NE5       30.04S
ALBERT LEA     PTCLDY    48  41  76 NE5       30.04S
DODGE CENTER   PTCLDY    55  32  41 NE5       30.05S
PRESTON        PTCLDY    55  38  54 CALM      30.06R
OWATONNA       CLEAR     45  37  76 CALM      30.05S
FARIBAULT      CLEAR     45  39  81 CALM      30.04F
$$

...ELSEWHERE IN MINNESOTA...


CITY           SKY/WX    TMP DP  RH WIND       PRES   REMARKS
MINNEAPOLIS    PTCLDY    51  35  54 CALM      30.06R
INTNL FALLS    CLEAR     29  25  85 CALM      30.20S
DULUTH         CLEAR     45  29  53 NE9       30.14R
RED WING       PTCLDY    43  36  75 CALM      30.04F
REDWOOD FALLS  PTCLDY    50  24  36 N6        30.03F
MANKATO        CLEAR     55  32  41 CALM      30.04S
WORTHINGTON    PTCLDY    46  23  39 N5        30.05F
FAIRMONT       MOCLDY    52  27  37 N6        30.04R
$$

...SOUTHWEST WISCONSIN...


CITY           SKY/WX    TMP DP  RH WIND       PRES   REMARKS
LA CROSSE      PTCLDY    53  49  86 CALM      30.03S
PRAIRIE DU CHI PTCLDY    50  44  78 CALM      30.04R
BOSCOBEL       CLEAR     46  42  86 CALM      30.04R
LONE ROCK      CLEAR     47  42  83 W3        30.03R
PLATTEVILLE    PTCLDY    57  44  62 CALM      30.03R
FORT MC COY    CLEAR     41  39  93 CALM      30.05S
CAMP DOUGLAS   PTCLDY    44  44 100 W3        30.03S
VIROQUA        FAIR      58  36  42 CALM      30.05R
WIS DELLS      PTCLDY    49  41  75 CALM      30.03S
$$

...ELSEWHERE IN WISCONSIN...


CITY           SKY/WX    TMP DP  RH WIND       PRES   REMARKS
MILWAUKEE      PTCLDY    50  41  71 CALM      30.00S
MADISON        CLEAR     51  45  79 CALM      30.02R
GREEN BAY      CLEAR     49  43  80 CALM      30.01R
EAU CLAIRE     CLEAR     46  35  65 CALM      30.04R
BLACK RVR FLS  FAIR      36  36 100 CALM      30.03F
MEDFORD        CLEAR     47  30  51 NE10      30.06R
WAUSAU         CLEAR     49  38  65 N6        30.03R
WIS RAPIDS     PTCLDY    45  35  68 CALM      30.04S
MARSHFIELD     CLEAR     50  33  52 NW6       30.04R
RICE LAKE      CLEAR     47  32  56 NE9       30.09R
$$

...NORTHEAST IOWA...


CITY           SKY/WX    TMP DP  RH WIND       PRES   REMARKS
DECORAH        PTCLDY    55  45  67 CALM      30.04R
MASON CITY     MOCLDY    52  43  71 N5        30.05S
CHARLES CITY   CLOUDY    57  43  58 NE7       30.04S
OELWEIN        CLOUDY    55  46  71 NE5       30.03S
$$

...ELSEWHERE IN IOWA...


CITY           SKY/WX    TMP DP  RH WIND       PRES   REMARKS
DES MOINES     CLOUDY    64  56  75 CALM      29.99F
IOWA CITY      PTCLDY    54  50  86 CALM      30.01F
FORT DODGE     MOCLDY    55  45  67 E3        30.02S
$$

...NORTHERN ILLINOIS...


CITY           SKY/WX    TMP DP  RH WIND       PRES   REMARKS
CHICAGO-OHARE  PTCLDY    63  47  55 SW6       30.00S
CHICAGO-MIDWAY MOCLDY    65  49  56 SW8       30.01S
MOLINE         PTCLDY    50  45  83 CALM      29.99F
ROCKFORD       MOCLDY    56  48  74 N3        30.04R
PEORIA         PTCLDY    62  52  69 S3        30.02S
$$

NOTE: "FAIR" INDICATES FEW OR NO CLOUDS BELOW 12,000 FEET WITH NO
SIGNIFICANT WEATHER AND/OR OBSTRUCTIONS TO VISIBILITY. WIND
SPEEDS ARE IN MILES-PER-HOUR.



USA.gov is the U.S. government's official web portal to all federal, state and local government web resources and services.